Regional Weather Roundup
Issued by NWS Lake Charles, LA

Home | Current Version | Previous Version | Text Only | Print | Product List | Glossary On
Versions: 1 2 3 4 5 6 7 8 9 10 11 12 13 14 15 16 17 18 19 20 21 22 23 24 25 26 27 28 29 30 31 32 33 34 35 36 37 38 39 40 41 42 43 44 45 46 47 48 49 50
000
ASUS44 KLCH 260910
RWRLCH
RWRLCH
REGIONAL WEATHER ROUNDUP
NATIONAL WEATHER SERVICE LAKE CHARLES LA
300 AM CST MON JAN 26 2015

Note: "fair" indicates few or no clouds below 12,000 feet with no
significant weather and/or obstructions to visibility.


ACROSS SOUTHEAST TEXAS

CITY           SKY/WX    TMP DP  RH WIND       PRES   REMARKS
BEAUMONT       CLEAR     53  30  41 N12       30.13R
BEAUMONT CITY    N/A     48  32  54 N9        30.15R
ORANGE         SUNNY     52  30  42 N8        30.14S
JASPER         CLEAR     38  33  82 CALM      30.18S
$$

ACROSS CENTRAL LOUISIANA

CITY           SKY/WX    TMP DP  RH WIND       PRES   REMARKS
LEESVILLE      CLEAR     47  31  53 N8        30.11S
FULLERTON        N/A     49  30  48 VRB3      30.09S
ALEXANDRIA INT CLEAR     45  33  63 NW7       30.10R
ESLER FIELD    CLEAR     47  32  56 VRB6      30.10R
DERIDDER         N/A     46  29  52 CALM      30.14S
OAKDALE        SUNNY     36  33  90 CALM      30.12R
OPELOUSAS        N/A     44  32  62 NW5       30.09S
$$

ACROSS SOUTHWEST AND SOUTH CENTRAL LOUISIANA

CITY           SKY/WX    TMP DP  RH WIND       PRES   REMARKS
SULPHUR        SUNNY     51  31  45 NW13      30.13S
LAKE CHARLES   CLEAR     52  30  43 NW16G23   30.11S
CHENNAULT INT  CLEAR     50  30  47 NW12      30.12S
CAMERON PHI      N/A     52  34  50 N12G18    30.14S
DEQUINCY         N/A     46  31  54 NW6       30.14R
JENNINGS         N/A     47  33  58 NW10      30.11S
LAFAYETTE      CLEAR     51  32  48 N16       30.09R
NEW IBERIA     CLEAR     48  34  58 NW9       30.08R
ABBEVILLE        N/A     45  33  62 NW8       30.09R
PATTERSON      CLEAR     50  32  50 N6        30.07S
SALT POINT       N/A     51  36  56 VRB6      30.06S
$$

SELECTED SITES ACROSS THE REGION

CITY           SKY/WX    TMP DP  RH WIND       PRES   REMARKS
HOUSTON BUSH   PTCLDY    54  27  35 N13       30.16R
HOUSTON HOBBY  PTCLDY    54  28  36 N10       30.14S
GALVESTON      CLEAR     49  40  71 W7        30.16S
COLLEGE STAT   CLEAR     45  30  55 N8        30.19S
CONROE         CLEAR     43  30  60 NW6       30.18S
HUNTSVILLE     CLEAR     47  27  45 N5        30.18S
LUFKIN         CLEAR     47  28  47 NW3       30.17R
SHREVEPORT     CLEAR     44  32  62 NW9       30.13R
MONROE         CLEAR     44  34  67 NW9       30.10R
NATCHEZ MS     CLEAR     46  30  53 NW8       30.07R
BATON ROUGE    CLEAR     52  31  44 NW13G23   30.05R
N.O. INTL ARPT CLEAR     51  35  54 NW10      30.04R
SLIDELL        CLEAR     49  34  56 CALM      30.01S
$$

MARINE REPORTS

STATION/POSITION TIME  TEMP    WIND        PRES    VSBY  WAVE
                       AIR SEA DIR/SP/G                  HT/PER
                 (UTC) (F)     (DEG/KT/KT) (MB)    (MI)  (FT/S)
BUOY 30 S HIGH I 0900   56 55  340/ 10/ 14 1020.3R         2/ 6
SEA RIM ST PARK  0900   48     340/ 10/ 10 1020.9R
PORT ARTHUR      0900      51  340/  8/ 14 1020.4R
SABINE PASS N    0900   54 52  340/ 11/ 16 1020.3R
TEXAS POINT      NOT AVBL
CALCASIEU PASS   0900   52 49  360/ 12/ 16   N/A
LK CHARLES BEACH 0900   52 52              1020.0S
MARSH ISLAND     NOT AVBL
FRESH WATER LOCK 0900   48 53  310/  7/  9 1018.8S
AMERADA PASS     0900   50 47  300/  8/ 10 1018.0S
$$


USA.gov is the U.S. government's official web portal to all federal, state and local government web resources and services.